[[{"header":{"parameterUnit":"m.s-1","parameterCategory":1,"la1":30.2991,"la2":30.254,"lo1":-89.0895,"lo2":-89.0444,"dy":0.0017,"dx":0.0017,"nx":28,"ny":28,"refTime":"2023-09-25T09:00:00:Z","depth":0,"parameterNumber":2,"parameterNumberName":"U-component_of_WINDS"},"data":[0,0,0,0,0,0,0,0,0,0,0,0,0,0,0,0,0,0,0,0,0,0,0,0,0,0,0,0,0,0,0,0,0,0,0,0,0,0,0,0,0,0,0,0,0,0,0,0,0,0,0,0,0,0,0,0,0,0,1.3528,1.3528,0,1.3541,1.3541,1.3541,1.3527,1.3527,1.3526,1.3526,1.3537,1.3538,1.3539,0,0,0,0,0,0,0,0,0,0,0,0,0,1.3487,1.3488,1.3528,1.3528,1.3528,1.3541,1.3541,1.3541,1.3527,1.3527,1.3526,1.3525,1.3537,1.3538,1.3539,0,0,0,0,0,0,0,0,0,0,0,0,0,1.3503,1.3489,1.3528,1.3523,1.3522,1.3541,1.3541,1.3541,1.3527,1.3527,1.3526,1.3525,1.3537,1.3538,1.3539,1.3563,0,0,1.3543,1.3543,0,0,0,0,0,0,0,0,1.3502,1.3505,1.3523,1.3523,1.3523,1.3532,1.3531,1.3548,1.3528,1.3525,1.3526,1.3525,1.3536,1.3537,1.3541,1.3563,1.3564,1.3543,1.3544,1.3544,1.3545,0,0,0,0,0,0,0,1.3501,1.3504,1.3533,1.3524,1.3523,1.3519,1.352,1.3534,1.3535,1.3526,1.3525,1.3526,1.3536,1.354,1.3542,1.3564,1.3543,1.3544,1.3545,1.3545,1.3603,1.3604,0,0,0,0,0,0,1.3501,1.3503,1.3533,1.3533,1.351,1.352,1.3522,1.353,1.3535,1.3535,1.3527,1.3526,1.3539,1.354,1.3542,1.3568,1.3544,1.3545,1.3546,1.3602,1.3603,1.3604,0,0,0,0,0,0,1.35,1.3504,1.3532,1.3518,1.3521,1.3522,1.3531,1.353,1.3535,1.3536,1.3536,1.3532,1.3538,1.354,1.3557,1.3568,1.3546,1.3547,1.3601,1.3602,1.3603,1.3621,0,0,0,0,0,0,1.3499,1.3504,1.3514,1.3518,1.3522,1.3548,1.3531,1.3531,1.3537,1.3535,1.354,1.354,1.3538,1.3555,1.3558,1.3569,1.3548,1.36,1.3602,1.3603,1.3619,1.3622,1.3625,0,0,0,0,0,1.3498,1.3518,1.3514,1.3518,1.3535,1.3549,1.3551,1.3547,1.3538,1.3547,1.3548,1.354,1.3567,1.3557,1.356,1.3572,1.3599,1.3601,1.3603,1.3618,1.3622,1.3625,0,0,0,0,0,0,1.3515,1.3519,1.3514,1.3537,1.3543,1.3546,1.3558,1.3552,1.356,1.3558,1.3553,1.3554,1.3572,1.3574,1.3563,1.3593,1.3581,1.3584,1.3591,1.3595,1.3598,1.3597,1.3549,0,0,0,0,0,1.3521,1.3533,1.3536,1.3556,1.3559,1.3558,1.3564,1.3561,1.3566,1.3568,1.357,1.3575,1.3584,1.359,1.3598,1.362,1.3619,1.3629,1.3632,1.3634,1.3636,1.3645,1.3648,1.361,1.361,1.361,0,0,1.3535,1.3539,1.3546,1.3559,1.3563,1.3574,1.356,1.3573,1.358,1.357,1.3585,1.3587,1.3592,1.361,1.3618,1.3612,1.3647,1.3637,1.3638,1.3639,1.3647,1.365,1.3654,1.3611,1.3611,1.361,0,0,1.3564,1.357,1.3585,1.3589,1.3595,1.3594,1.3597,1.3601,1.3602,1.3617,1.3609,1.3617,1.3634,1.3637,1.3641,1.3669,1.3661,1.3672,1.3687,1.3695,1.3698,1.3701,1.3709,1.3712,1.3674,1.3674,1.3674,0,1.358,1.3597,1.3594,1.3607,1.3611,1.3602,1.3617,1.3621,1.3629,1.3632,1.3625,1.3644,1.3647,1.3664,1.3671,1.3675,1.3677,1.3671,1.3698,1.3701,1.3703,1.3711,1.3714,1.3675,1.3675,1.3675,1.3675,0,1.3615,1.3627,1.3638,1.3646,1.3652,1.3666,1.3663,1.367,1.3666,1.3665,1.3679,1.3682,1.369,1.3694,1.3691,1.3711,1.3706,1.3699,1.3686,1.3708,1.3715,1.3718,1.3676,1.3676,1.3676,1.3675,0,0,1.3656,1.366,1.3664,1.3666,1.3671,1.368,1.3692,1.37,1.3704,1.371,1.3719,1.3732,1.3724,1.3728,1.3725,1.3733,1.3752,1.3724,1.3724,1.3727,1.3771,1.3775,1.3779,1.3747,1.3748,1.3748,1.377,0,1.3684,1.3705,1.3702,1.3722,1.3731,1.3722,1.3732,1.3735,1.3735,1.3742,1.3741,1.3749,1.374,1.3742,1.3749,1.3748,1.376,1.3747,1.3754,1.3754,1.3751,1.3783,1.3788,1.3808,1.3773,1.3773,1.3774,0,1.3719,1.3725,1.3746,1.3747,1.3751,1.3761,1.3766,1.3773,1.3776,1.3774,1.3778,1.3773,1.3783,1.3771,1.3785,1.3775,1.3778,1.3778,1.3778,1.3778,1.3764,1.3781,1.3815,1.3817,1.3778,1.3778,1.3778,0,1.3744,1.3757,1.3771,1.3774,1.3776,1.3782,1.3783,1.3785,1.3789,1.3794,1.3796,1.3802,1.3804,1.3808,1.3804,1.3796,1.3817,1.3805,1.3815,1.3815,1.3819,1.3818,1.3851,1.3823,1.3823,1.3823,1.3823,0,1.3774,1.3787,1.3782,1.379,1.3803,1.3798,1.3811,1.3811,1.3813,1.382,1.3813,1.3819,1.3814,1.3819,1.3816,1.3826,1.3828,1.3826,1.3825,1.3826,1.3826,1.3826,1.3824,1.3824,1.3824,1.3824,1.3824,0,1.3804,1.3801,1.3815,1.3815,1.3816,1.3825,1.3825,1.3832,1.383,1.3839,1.3841,1.3838,1.3844,1.384,1.3847,1.3844,1.3857,1.3854,1.3856,1.3854,1.3863,1.3862,1.3897,1.39,1.3872,1.3872,1.3872,0,1.3822,1.3832,1.3832,1.3836,1.3838,1.3845,1.3849,1.3844,1.3848,1.385,1.3856,1.3862,1.3866,1.3876,1.3874,1.3878,1.3875,1.3886,1.3875,1.3875,1.3872,1.3871,1.3871,1.3888,1.3889,1.3889,1.3889,0,1.3855,1.3852,1.3858,1.3863,1.3867,1.3871,1.3874,1.3877,1.3872,1.3877,1.3883,1.3886,1.3892,1.3896,1.39,1.39,1.3893,1.3893,1.3895,1.3895,1.3895,1.3893,1.386,1.3892,1.3892,1.3891,1.3891,1.3891,1.3878,1.3884,1.3886,1.3891,1.3893,1.3895,1.3901,1.39,1.3905,1.3909,1.3906,1.3912,1.3913,1.3916,1.3917,1.3921,1.3917,1.392,1.3921,1.3921,1.3921,1.3895,1.3922,1.3922,1.3922,1.3922,1.3922,0,1.3908,1.3907,1.3913,1.3917,1.3921,1.3915,1.3917,1.3921,1.3926,1.3928,1.3931,1.3937,1.3942,1.3939,1.3943,1.3947,1.3943,1.3947,1.3946,1.3946,1.3927,1.3924,1.395,1.395,1.395,1.395,1.395,1.395,1.3924,1.3934,1.3932,1.3942,1.3942,1.3948,1.395,1.3951,1.3952,1.3959,1.3962,1.3961,1.396,1.3963,1.3966,1.3965,1.3966,1.3971,1.3969,1.395,1.3948,1.3945,1.3942,1.3972,1.3972,1.3988,1.3988,1.3988]},{"header":{"parameterUnit":"m.s-1","parameterCategory":1,"la1":30.2991,"la2":30.254,"lo1":-89.0895,"lo2":-89.0444,"dy":0.0017,"dx":0.0017,"nx":28,"ny":28,"refTime":"2023-09-25T09:00:00:Z","depth":0,"parameterNumber":3,"parameterNumberName":"V-component_of_WINDS"},"data":[0,0,0,0,0,0,0,0,0,0,0,0,0,0,0,0,0,0,0,0,0,0,0,0,0,0,0,0,0,0,0,0,0,0,0,0,0,0,0,0,0,0,0,0,0,0,0,0,0,0,0,0,0,0,0,0,0,0,1.1854,1.1854,0,1.1918,1.1919,1.192,1.193,1.1929,1.1929,1.1928,1.1994,1.1996,1.1998,0,0,0,0,0,0,0,0,0,0,0,0,0,1.1737,1.1739,1.1854,1.1854,1.1855,1.1918,1.1919,1.192,1.193,1.1929,1.1929,1.1928,1.1993,1.1996,1.1998,0,0,0,0,0,0,0,0,0,0,0,0,0,1.1793,1.1739,1.1853,1.1868,1.187,1.1918,1.1919,1.192,1.193,1.1929,1.1928,1.1928,1.1992,1.1995,1.1999,1.2037,0,0,1.2009,1.2011,0,0,0,0,0,0,0,0,1.179,1.1797,1.1865,1.1867,1.1869,1.1915,1.1902,1.1959,1.193,1.1907,1.1928,1.1927,1.1968,1.1974,1.1988,1.204,1.2043,1.2009,1.2012,1.2013,1.2014,0,0,0,0,0,0,0,1.1786,1.1794,1.1879,1.1866,1.1868,1.187,1.1877,1.1913,1.1942,1.1909,1.191,1.1918,1.1969,1.1984,1.1989,1.2044,1.2009,1.2012,1.2014,1.2016,1.2129,1.213,0,0,0,0,0,0,1.178,1.1791,1.1877,1.1881,1.1827,1.1873,1.1881,1.1901,1.1941,1.1947,1.1918,1.1918,1.1979,1.1985,1.1991,1.2038,1.2013,1.2016,1.2018,1.2128,1.213,1.2131,0,0,0,0,0,0,1.1777,1.1787,1.1875,1.1836,1.1848,1.1876,1.1899,1.1903,1.1918,1.1948,1.1953,1.1928,1.1978,1.1987,1.2025,1.2041,1.2018,1.2021,1.2127,1.2129,1.213,1.2132,0,0,0,0,0,0,1.1774,1.1786,1.1802,1.1837,1.185,1.1908,1.19,1.1905,1.1924,1.1924,1.1959,1.1964,1.1978,1.202,1.2029,1.2045,1.2023,1.2126,1.2128,1.213,1.2131,1.2134,1.2136,0,0,0,0,0,1.1769,1.18,1.1802,1.1813,1.187,1.1909,1.1916,1.1932,1.1925,1.1941,1.196,1.1963,1.2037,1.2024,1.2034,1.2051,1.2125,1.2127,1.2129,1.213,1.2133,1.2136,0,0,0,0,0,0,1.1766,1.1805,1.1808,1.1851,1.1876,1.1911,1.1931,1.1935,1.1963,1.1962,1.198,1.1988,1.2026,1.2042,1.2027,1.2089,1.2081,1.2085,1.2077,1.2081,1.2083,1.2078,1.2026,0,0,0,0,0,1.177,1.1799,1.1831,1.1866,1.1878,1.1902,1.192,1.193,1.1957,1.1968,1.199,1.2016,1.2045,1.2064,1.2092,1.2133,1.214,1.215,1.2152,1.2154,1.2157,1.2179,1.2183,1.2138,1.2138,1.2138,0,0,1.1779,1.1804,1.1821,1.1866,1.1887,1.1916,1.1911,1.1942,1.1964,1.1973,1.201,1.2027,1.2057,1.2097,1.2115,1.2112,1.2171,1.2157,1.2158,1.216,1.2182,1.2186,1.219,1.2139,1.2139,1.2139,0,0,1.181,1.1832,1.1863,1.1884,1.1916,1.1931,1.1938,1.1971,1.1983,1.2021,1.2028,1.2053,1.2103,1.2124,1.2141,1.2178,1.2181,1.2186,1.2199,1.222,1.2224,1.2227,1.2239,1.2244,1.219,1.219,1.219,0,1.1818,1.1862,1.1878,1.1909,1.1928,1.1936,1.1967,1.1986,1.2026,1.2038,1.2033,1.2095,1.2116,1.216,1.2169,1.2183,1.2191,1.2183,1.2222,1.2225,1.2228,1.224,1.2245,1.219,1.219,1.219,1.219,0,1.1869,1.1899,1.192,1.1958,1.1979,1.2009,1.2029,1.2048,1.2056,1.2071,1.2109,1.2134,1.2167,1.2178,1.2186,1.2223,1.222,1.2218,1.221,1.2233,1.2244,1.2249,1.219,1.219,1.219,1.219,0,0,1.1901,1.1946,1.1953,1.197,1.2005,1.2028,1.2058,1.2091,1.2106,1.2133,1.2158,1.2199,1.2197,1.2217,1.2227,1.2245,1.2271,1.2241,1.2242,1.2245,1.2312,1.2313,1.2318,1.2274,1.2275,1.2275,1.2309,0,1.1936,1.199,1.2005,1.2051,1.2079,1.2086,1.2112,1.2136,1.2151,1.2176,1.2192,1.2221,1.2217,1.2228,1.2246,1.2264,1.2285,1.2262,1.2297,1.2298,1.2289,1.2324,1.2326,1.2357,1.2314,1.2315,1.2315,0,1.1985,1.2011,1.206,1.209,1.2102,1.2125,1.2155,1.2179,1.2206,1.2215,1.2236,1.2244,1.2274,1.2264,1.2305,1.2289,1.2304,1.2315,1.2316,1.232,1.2308,1.2329,1.2367,1.2371,1.2323,1.2322,1.2322,0,1.2002,1.2051,1.2086,1.21,1.2136,1.2151,1.2167,1.2193,1.2211,1.2237,1.2248,1.2277,1.2293,1.2315,1.233,1.2321,1.237,1.2361,1.2378,1.2378,1.2388,1.2387,1.2429,1.2398,1.2398,1.2398,1.2398,0,1.204,1.2069,1.2094,1.2116,1.2148,1.2164,1.2195,1.2211,1.2233,1.2257,1.2266,1.2288,1.2307,1.2331,1.2343,1.2375,1.2382,1.239,1.2393,1.2389,1.2388,1.2399,1.2398,1.2399,1.2399,1.2399,1.2398,0,1.2065,1.2083,1.2122,1.2152,1.2161,1.2183,1.2209,1.2229,1.2244,1.2274,1.2282,1.2304,1.2333,1.2351,1.2387,1.2395,1.243,1.2433,1.2422,1.2423,1.2439,1.2437,1.2489,1.2496,1.246,1.2461,1.2461,0,1.2088,1.2111,1.2143,1.216,1.2176,1.2203,1.2221,1.2237,1.2255,1.2286,1.2303,1.2332,1.2357,1.2402,1.2422,1.2449,1.2452,1.2468,1.2456,1.2451,1.2451,1.245,1.2451,1.247,1.247,1.2471,1.2471,0,1.2127,1.2134,1.216,1.2189,1.221,1.2234,1.2257,1.227,1.2289,1.2309,1.2339,1.2358,1.2395,1.2424,1.2453,1.2468,1.2472,1.2474,1.248,1.2476,1.2469,1.2472,1.2427,1.2473,1.2473,1.2473,1.2473,1.2473,1.2151,1.2171,1.2197,1.2225,1.2244,1.2265,1.2286,1.2302,1.2328,1.2359,1.2367,1.2397,1.2422,1.2461,1.2477,1.25,1.2498,1.2506,1.2507,1.2509,1.2509,1.2465,1.2506,1.2506,1.2506,1.2506,1.2506,0,1.219,1.2206,1.2232,1.2264,1.2286,1.2288,1.2313,1.2331,1.2358,1.2381,1.2404,1.2438,1.2465,1.2486,1.2514,1.2529,1.2531,1.2535,1.2534,1.2538,1.251,1.2503,1.2533,1.2533,1.2533,1.2533,1.2533,1.2533,1.2212,1.2246,1.2256,1.2298,1.2314,1.2345,1.2359,1.2378,1.2396,1.2433,1.2456,1.2469,1.249,1.2519,1.2544,1.2549,1.2559,1.2563,1.2568,1.2543,1.254,1.2537,1.253,1.2565,1.2565,1.2594,1.2594,1.2594]}]]